CW9583 Weather Reports


time (UTC)temp
F
wind
direction
speed
knots
gust
knots
rain 1hr
in
rain 24hr
in
rain mn
in
humidity
%
barometer
mb
20260504235534 81 314 0.9 7.8 0.00 0.00 0.00 34 1009.8
20260504233418 79 254 2.6 7.8 0.00 0.00 0.00 33 1009.9
20260504232427 79 248 2.6 8.7 0.00 0.00 0.00 33 1009.8
20260504231439 78 264 3.5 8.7 0.00 0.00 0.00 32 1009.8
20260504230448 81 236 0.9 6.1 0.00 0.00 0.00 32 1009.9
20260504225438 79 344 1.7 5.2 0.00 0.00 0.00 35 1010.0
20260504224417 79 331 2.6 7.8 0.00 0.00 0.00 35 1010.2
20260504223433 78 193 2.6 7.8 0.00 0.00 0.00 34 1010.3
20260504222458 78 206 1.7 7.0 0.00 0.00 0.00 35 1010.3
20260504220257 78 32 0.9 9.6 0.00 0.00 0.00 35 1010.5
20260504214203 77 260 1.7 7.0 0.00 0.00 0.00 38 1010.7
20260504213218 78 297 0.9 10.4 0.00 0.00 0.00 37 1010.6
20260504211109 76 269 2.6 7.0 0.00 0.00 0.00 41 1010.6
20260504210114 76 202 1.7 6.1 0.00 0.00 0.00 41 1010.7
20260504204005 75 316 1.7 5.2 0.00 0.00 0.00 43 1010.9
20260504203024 75 170 1.7 5.2 0.00 0.00 0.00 43 1010.7
20260504201957 76 226 1.7 4.3 0.00 0.00 0.00 44 1010.6
20260504201022 76 325 1.7 7.0 0.00 0.00 0.00 44 1010.6
20260504194927 74 200 2.6 7.0 0.00 0.00 0.00 45 1010.7
20260504192736 74 340 0.9 4.3 0.00 0.00 0.00 46 1010.9
20260504191800 73 296 1.7 4.3 0.00 0.00 0.00 47 1011.1
20260504190805 73 317 1.7 7.0 0.00 0.00 0.00 44 1011.1
20260504182335 72 233 1.7 8.7 0.00 0.00 0.00 48 1011.3
20260504181348 72 244 2.6 8.7 0.00 0.00 0.00 50 1011.4
20260504180338 72 248 1.7 6.1 0.00 0.00 0.00 51 1011.4
20260504175311 71 273 1.7 6.1 0.00 0.00 0.00 51 1011.5
20260504174316 72 216 0.9 4.3 0.00 0.00 0.00 50 1011.4
20260504173304 70 188 0.9 4.3 0.00 0.00 0.00 52 1011.4
20260504172323 70 147 0.9 3.5 0.00 0.00 0.00 51 1011.5
20260504171328 70 174 0.0 3.5 0.00 0.00 0.00 51 1011.5
20260504170302 70 207 0.9 3.5 0.00 0.00 0.00 52 1011.5
20260504150955 63 155 0.0 2.6 0.00 0.00 0.00 62 1011.3
20260504140913 56 39 0.0 0.9 0.00 0.00 0.00 77 1011.0
20260504130602 56 153 0.0 0.0 0.00 0.00 0.00 72 1010.2
20260504120248 55 49 0.0 0.9 0.00 0.00 0.00 75 1010.1
20260504110257 55 46 0.0 0.9 0.00 0.00 0.00 76 1010.0
20260504081539 59 49 0.0 0.9 0.00 0.00 0.00 72 1009.7
20260504070248 65 254 0.0 0.0 0.00 0.00 0.00 60 1010.0
20260504045943 69 6 0.0 2.6 0.00 0.00 0.00 55 1009.6
20260504042735 70 6 0.9 2.6 0.00 0.00 0.00 52 1009.5
20260504041741 70 350 0.9 2.6 0.00 0.00 0.00 53 1009.5
20260504040710 70 6 0.9 2.6 0.00 0.00 0.00 54 1009.4
20260504035728 71 337 0.9 2.6 0.00 0.00 0.00 53 1009.4
20260504034716 72 359 0.9 2.6 0.00 0.00 0.00 53 1009.3
20260504033703 73 354 0.9 2.6 0.00 0.00 0.00 50 1009.3
20260504031623 74 295 0.9 3.5 0.00 0.00 0.00 48 1009.2
20260504030615 75 294 0.9 2.6 0.00 0.00 0.00 47 1009.3
20260504025626 76 288 0.9 3.5 0.00 0.00 0.00 46 1009.2
20260504024649 76 328 0.9 5.2 0.00 0.00 0.00 45 1009.3
20260504023709 76 333 1.7 7.0 0.00 0.00 0.00 45 1009.2
20260504022709 77 353 1.7 7.0 0.00 0.00 0.00 44 1009.3
20260504021714 78 302 0.9 6.1 0.00 0.00 0.00 44 1009.3
20260504020656 78 290 2.6 7.0 0.00 0.00 0.00 44 1009.3
20260504014533 80 290 2.6 6.1 0.00 0.00 0.00 42 1009.4
20260504013458 81 340 3.5 7.8 0.00 0.00 0.00 41 1009.4
20260504012453 81 278 2.6 7.8 0.00 0.00 0.00 39 1009.4
20260504011509 82 306 2.6 7.0 0.00 0.00 0.00 40 1009.5
20260504005253 83 319 1.7 6.1 0.00 0.00 0.00 39 1009.7
20260504004240 83 337 2.6 6.1 0.00 0.00 0.00 38 1009.8
20260504003258 83 320 2.6 6.1 0.00 0.00 0.00 39 1009.9
20260504002304 82 294 2.6 7.0 0.00 0.00 0.00 40 1010.0
20260504001250 82 300 2.6 7.8 0.00 0.00 0.00 40 1010.1